Los Angeles, CA

11:08 PM PST on November 23, 2017 (GMT -0800)
Los Angeles International

Weather History for KLAX - October, 2012

Change the Weather History Date:

Saturday, October 6, 2012

  Actual Average Record
Temperature  
Mean Temperature 69 °F 67 °F  
Max Temperature 76 °F 73 °F 101 °F (1971)
Min Temperature 62 °F 61 °F 50 °F (1946)
Degree Days  
Heating Degree Days 0 1  
Month to date heating degree days 0 3  
Since 1 July heating degree days 5 12  
Cooling Degree Days 4 3  
Month to date cooling degree days 34 18  
Year to date cooling degree days 603 486  
Growing Degree Days 19 (Base 50)    
Moisture  
Dew Point 62 °F    
Average Humidity 79    
Maximum Humidity 93    
Minimum Humidity 64    
Precipitation  
Precipitation 0.00 in 0.02 in 0.62 in (2010)
Month to date precipitation 0.00 0.08  
Year to date precipitation 4.61 9.18  
Since 1 July precipitation T  
Sea Level Pressure  
Sea Level Pressure 29.93 in    
Wind  
Wind Speed 6 mph (SSW)    
Max Wind Speed 15 mph    
Max Gust Speed 20 mph    
Visibility 9 miles    
Events      
T = Trace of Precipitation, MM = Missing Value Source: NWS Daily Summary

Daily Weather History Graph

Daily Weather History Graph

Search for Another Location

Airport or City:

Trip Planner

Search our weather history database for the weather conditions in past years. The results will help you decide how hot, cold, wet, or windy it might be!

Date:

Astronomy

Oct. 06, 2012 Rise Set
Actual Time 6:52 AM PDT 6:30 PM PDT
Civil Twilight 6:27 AM PDT 6:55 PM PDT
Nautical Twilight 5:58 AM PDT 7:24 PM PDT
Astronomical Twilight 5:29 AM PDT 7:53 PM PDT
Moon 11:02 PM PDT (10/6) 12:37 PM PDT (10/6)
Length of Visible Light 12h 28m
Length of Day
11h 38m
Waning Gibbous, 64% of the Moon is Illuminated
Oct 6
Waning Gibbous
Oct 8
Last Quarter
Oct 15
New
Oct 21
First Quarter
Oct 29
Full

Hourly Weather History & Observations

Time (PDT) Temp. Dew Point Humidity Pressure Visibility Wind Dir Wind Speed Gust Speed Precip Events Conditions
12:53 AM 64.9 °F 61.0 °F 87% 29.96 in 10.0 mi Calm Calm - N/A   Scattered Clouds
1:21 AM - - N/A% - - North - - N/A   Unknown
1:53 AM 64.9 °F 61.0 °F 87% 29.96 in 10.0 mi ENE 3.5 mph - N/A   Scattered Clouds
2:53 AM 63.0 °F 60.1 °F 90% 29.95 in 9.0 mi East 3.5 mph - N/A   Scattered Clouds
3:53 AM 63.0 °F 60.1 °F 90% 29.94 in 8.0 mi East 3.5 mph - N/A   Partly Cloudy
4:53 AM 63.0 °F 61.0 °F 93% 29.94 in 8.0 mi East 3.5 mph - N/A   Partly Cloudy
5:53 AM 63.0 °F 61.0 °F 93% 29.94 in 8.0 mi NE 4.6 mph - N/A   Scattered Clouds
6:53 AM 63.0 °F 61.0 °F 93% 29.94 in 7.0 mi East 3.5 mph - N/A   Mostly Cloudy
7:53 AM 64.0 °F 61.0 °F 90% 29.96 in 6.0 mi East 4.6 mph - N/A   Mostly Cloudy
8:19 AM 66.2 °F 60.8 °F 83% 29.97 in 6.0 mi ENE 3.5 mph - N/A   Haze
8:53 AM 68.0 °F 62.1 °F 81% 29.97 in 6.0 mi SE 3.5 mph - N/A   Haze
9:04 AM 68.0 °F 62.6 °F 83% 29.97 in 6.0 mi Calm Calm - N/A   Haze
9:53 AM 70.0 °F 62.1 °F 76% 29.97 in 7.0 mi Calm Calm - N/A   Mostly Cloudy
10:53 AM 72.0 °F 62.1 °F 71% 29.96 in 7.0 mi South 4.6 mph - N/A   Mostly Cloudy
11:53 AM 73.9 °F 62.1 °F 66% 29.94 in 10.0 mi West 6.9 mph - N/A   Mostly Cloudy
12:53 PM 75.0 °F 63.0 °F 66% 29.93 in 10.0 mi West 10.4 mph - N/A   Mostly Cloudy
1:53 PM 73.9 °F 61.0 °F 64% 29.91 in 10.0 mi West 13.8 mph - N/A   Mostly Cloudy
2:53 PM 73.0 °F 62.1 °F 68% 29.89 in 10.0 mi WSW 10.4 mph - N/A   Mostly Cloudy
3:53 PM 73.9 °F 60.1 °F 62% 29.88 in 10.0 mi West 10.4 mph - N/A   Mostly Cloudy
4:53 PM 72.0 °F 63.0 °F 73% 29.87 in 10.0 mi West 10.4 mph - N/A   Mostly Cloudy
5:53 PM 71.1 °F 62.1 °F 73% 29.87 in 10.0 mi WSW 9.2 mph - N/A   Mostly Cloudy
6:53 PM 70.0 °F 62.1 °F 76% 29.89 in 10.0 mi WSW 6.9 mph - N/A   Mostly Cloudy
7:53 PM 70.0 °F 62.1 °F 76% 29.89 in 10.0 mi WSW 5.8 mph - N/A   Mostly Cloudy
8:53 PM 70.0 °F 62.1 °F 76% 29.89 in 10.0 mi Calm Calm - N/A   Mostly Cloudy
9:53 PM 70.0 °F 62.1 °F 76% 29.90 in 10.0 mi SSW 3.5 mph - N/A   Mostly Cloudy
10:53 PM 69.1 °F 61.0 °F 75% 29.90 in 10.0 mi SW 5.8 mph - N/A   Mostly Cloudy
11:53 PM 69.1 °F 62.1 °F 78% 29.90 in 10.0 mi Variable 3.5 mph - N/A   Mostly Cloudy